Temp
-9 -8 -8 -9 -8 -8 -8 -8 -8 -8 -8 -8 -8 -8 -8 -8 -8 -8 -8 -8 -8 -8 -8 -8 -8 -8 -7 -7 -7 -7 -7 -7 -7 -7 -7 -7 -7 -7 -7 -7 -7 -7 -8
-9 -9 -8 -9 -9 -9 -8 -8 -8 -8 -8 -8 -8 -8 -8 -8 -8 -8 -9 -9 -8 -8 -8 -8 -8 -8 -7 -7 -7 -7 -7 -7 -7 -7 -7 -7 -7 -7 -7 -7 -7 -8 -8
-9 -9 -9 -9 -9 -9 -9 -9 -9 -8 -8 -9 -8 -9 -8 -8 -8 -8 -8 -9 -9 -9 -8 -8 -8 -8 -8 -8 -7 -7 -7 -7 -7 -7 -7 -8 -8 -8 -8 -7 -8 -8 -8
-9 -9 -9 -9 -9 -9 -9 -9 -9 -9 -9 -9 -9 -8 -9 -9 -8 -8 -8 -8 -8 -9 -9 -8 -8 -8 -8 -8 -8 -7 -7 -7 -7 -7 -8 -8 -8 -8 -8 -8 -8 -8 -8
-9 -9 -9 -9 -9 -9 -9 -9 -9 -9 -9 -9 -9 -9 -9 -8 -9 -8 -8 -8 -8 -8 -8 -8 -8 -8 -8 -8 -8 -8 -8 -7 -8 -8 -8 -8 -8 -8 -8 -8 -8 -8 -8
-10 -10 -9 -9 -9 -9 -9 -9 -9 -9 -9 -9 -9 -9 -9 -9 -9 -9 -8 -8 -8 -8 -8 -8 -8 -8 -8 -8 -8 -8 -8 -8 -8 -8 -8 -8 -8 -8 -9 -8 -8 -8 -8
-10 -10 -10 -9 -9 -9 -9 -9 -9 -9 -9 -9 -9 -9 -9 -9 -9 -9 -8 -8 -8 -8 -8 -8 -8 -8 -8 -8 -8 -8 -8 -8 -8 -8 -8 -8 -8 -8 -9 -9 -9 -8 -8
-11 -10 -10 -10 -10 -9 -9 -9 -9 -9 -9 -9 -9 -9 -9 -9 -9 -9 -9 -9 -8 -8 -8 -8 -8 -8 -8 -8 -8 -8 -8 -8 -8 -8 -8 -8 -8 -9 -9 -9 -9 -9 -8
-11 -11 -11 -10 -10 -10 -9 -9 -9 -9 -9 -9 -9 -9 -9 -9 -9 -9 -9 -9 -9 -8 -8 -8 -8 -8 -8 -8 -8 -8 -8 -8 -8 -8 -9 -9 -9 -9 -9 -9 -9 -9 -8
-11 -11 -11 -11 -10 -10 -10 -10 -9 -10 -10 -9 -9 -9 -9 -9 -9 -9 -9 -9 -9 -9 -9 -8 -8 -8 -8 -8 -8 -8 -8 -8 -8 -9 -9 -9 -9 -9 -9 -9 -9 -9 -9
-11 -11 -11 -11 -11 -10 -10 -10 -10 -10 -10 -10 -9 -9 -9 -9 -9 -9 -9 -9 -9 -9 -9 -8 -8 -8 -9 -9 -9 -9 -9 -9 -9 -9 -9 -9 -9 -9 -9 -9 -9 -9 -9
-11 -11 -11 -11 -11 -11 -11 -11 -10 -10 -10 -10 -10 -10 -10 -10 -9 -9 -9 -9 -9 -9 -9 -8 -8 -9 -9 -9 -9 -9 -9 -9 -9 -9 -9 -9 -9 -9 -9 -9 -9 -9 -9
-11 -11 -11 -11 -11 -11 -11 -11 -11 -11 -10 -10 -10 -10 -10 -10 -10 -10 -10 -10 -10 -9 -9 -9 -9 -9 -9 -9 -9 -9 -9 -9 -9 -9 -9 -9 -9 -9 -9 -9 -9 -9 -9
-11 -11 -11 -11 -11 -11 -11 -11 -11 -11 -11 -11 -11 -10 -10 -10 -10 -10 -10 -10 -10 -10 -10 -9 -9 -9 -9 -9 -9 -9 -9 -9 -9 -9 -9 -9 -9 -9 -9 -9 -9 -9 -9
-12 -11 -11 -12 -11 -11 -11 -11 -11 -11 -11 -11 -11 -11 -11 -11 -10 -10 -10 -10 -10 -10 -10 -10 -10 -10 -10 -9 -9 -9 -9 -9 -9 -9 -9 -10 -9 -9 -9 -9 -9 -9 -10
-12 -12 -12 -12 -12 -12 -12 -11 -11 -11 -11 -11 -11 -11 -11 -11 -11 -11 -10 -10 -10 -10 -11 -10 -10 -10 -10 -10 -9 -9 -9 -9 -9 -9 -9 -10 -10 -10 -10 -10 -9 -9 -10
-12 -12 -12 -12 -12 -12 -12 -12 -12 -11 -11 -11 -11 -11 -11 -11 -11 -11 -11 -11 -11 -10 -10 -11 -11 -11 -10 -10 -10 -10 -9 -9 -9 -9 -9 -10 -10 -10 -10 -10 -10 -10 -10
-13 -13 -13 -13 -13 -12 -12 -12 -12 -12 -12 -12 -11 -11 -11 -11 -11 -11 -11 -11 -11 -11 -11 -11 -11 -11 -11 -11 -10 -10 -10 -10 -10 -9 -10 -10 -10 -10 -10 -10 -10 -10 -10
-14 -14 -14 -13 -13 -13 -12 -12 -12 -13 -12 -12 -12 -12 -12 -12 -11 -12 -11 -12 -12 -11 -11 -11 -11 -11 -12 -11 -11 -11 -11 -10 -10 -10 -10 -10 -10 -10 -10 -10 -10 -10 -10
-15 -14 -15 -14 -14 -14 -13 -13 -13 -13 -13 -13 -13 -12 -12 -12 -12 -12 -12 -12 -12 -12 -12 -11 -11 -11 -12 -11 -11 -11 -11 -11 -10 -10 -10 -10 -10 -10 -10 -10 -10 -10 -10
-16 -15 -15 -15 -15 -14 -14 -13 -13 -13 -13 -13 -13 -13 -13 -12 -12 -12 -12 -12 -12 -12 -12 -12 -12 -11 -12 -12 -12 -12 -12 -11 -11 -10 -10 -10 -10 -10 -10 -11 -11 -11 -10
-17 -16 -16 -16 -15 -15 -14 -14 -14 -13 -13 -13 -13 -13 -12 -12 -12 -12 -12 -12 -12 -12 -13 -13 -12 -11 -12 -11 -12 -12 -12 -12 -11 -10 -10 -10 -10 -10 -11 -11 -11 -11 -11
-17 -17 -17 -16 -16 -15 -15 -14 -14 -14 -14 -13 -13 -13 -13 -13 -13 -13 -13 -14 -14 -14 -13 -13 -13 -13 -13 -12 -12 -12 -11 -12 -11 -11 -11 -11 -11 -11 -11 -11 -11 -11 -11
-18 -18 -18 -17 -17 -16 -16 -15 -15 -14 -14 -13 -13 -13 -13 -14 -14 -14 -14 -15 -15 -15 -15 -14 -13 -13 -13 -13 -12 -13 -12 -11 -12 -12 -12 -12 -11 -11 -11 -11 -11 -11 -11
-19 -19 -18 -18 -17 -17 -16 -16 -15 -15 -14 -14 -14 -14 -13 -14 -15 -15 -15 -15 -15 -15 -15 -15 -15 -14 -13 -13 -13 -13 -12 -12 -12 -12 -12 -12 -12 -12 -12 -12 -11 -11 -12
-19 -19 -19 -18 -18 -17 -17 -16 -16 -15 -14 -14 -14 -14 -14 -15 -15 -15 -15 -15 -15 -15 -16 -16 -15 -15 -14 -13 -13 -13 -13 -13 -12 -12 -13 -13 -13 -12 -12 -12 -12 -11 -12
Height
5844 5845 5847 5849 5851 5852 5853 5855 5856 5857 5859 5860 5862 5863 5864 5865 5866 5868 5869 5871 5873 5875 5876 5879 5881 5882 5883 5885 5886 5888 5889 5890 5892 5893 5894 5895 5896 5896 5897 5897 5898 5898 5899
5841 5842 5844 5846 5848 5850 5851 5852 5854 5855 5857 5859 5860 5861 5862 5864 5865 5866 5868 5870 5872 5873 5875 5877 5879 5881 5883 5884 5886 5888 5889 5890 5892 5893 5894 5895 5895 5896 5897 5898 5898 5898 5899
5839 5839 5840 5842 5844 5846 5848 5850 5851 5853 5854 5857 5858 5858 5860 5862 5864 5865 5866 5868 5870 5872 5873 5875 5877 5879 5882 5883 5885 5887 5888 5890 5892 5893 5894 5894 5895 5896 5897 5898 5898 5898 5899
5835 5836 5837 5838 5841 5842 5844 5846 5848 5849 5851 5853 5855 5857 5858 5859 5861 5863 5865 5866 5868 5869 5871 5873 5875 5877 5880 5882 5884 5886 5888 5889 5891 5892 5893 5895 5895 5896 5897 5897 5898 5898 5899
5832 5833 5834 5836 5837 5839 5840 5842 5844 5845 5847 5850 5851 5854 5856 5857 5858 5860 5862 5864 5866 5867 5869 5870 5873 5875 5878 5880 5882 5885 5886 5888 5890 5891 5893 5894 5895 5895 5896 5896 5897 5898 5898
5828 5829 5830 5831 5832 5834 5836 5838 5840 5841 5844 5845 5848 5850 5852 5853 5856 5857 5859 5861 5863 5865 5867 5869 5871 5873 5875 5878 5880 5882 5884 5886 5888 5890 5891 5892 5893 5894 5895 5895 5896 5896 5897
5822 5824 5825 5826 5827 5829 5830 5832 5835 5837 5839 5841 5843 5846 5847 5849 5852 5854 5856 5858 5860 5862 5865 5867 5869 5870 5873 5875 5878 5880 5882 5884 5886 5888 5889 5890 5891 5893 5893 5894 5894 5895 5895
5816 5818 5820 5821 5822 5823 5825 5827 5830 5832 5834 5836 5838 5840 5843 5845 5847 5850 5852 5855 5857 5859 5862 5864 5866 5868 5870 5872 5874 5878 5880 5882 5883 5885 5887 5888 5890 5891 5892 5892 5893 5893 5894
5810 5812 5814 5815 5816 5817 5819 5821 5823 5825 5828 5830 5832 5835 5837 5839 5842 5845 5847 5850 5853 5855 5858 5861 5863 5865 5867 5869 5872 5874 5877 5879 5880 5882 5884 5886 5887 5889 5889 5890 5891 5892 5892
5804 5805 5807 5809 5810 5811 5812 5815 5817 5819 5821 5823 5826 5829 5832 5834 5836 5839 5842 5845 5847 5850 5853 5856 5858 5860 5863 5866 5868 5870 5873 5875 5877 5879 5881 5882 5884 5886 5887 5887 5888 5889 5889
5798 5799 5801 5802 5804 5805 5806 5808 5810 5812 5815 5817 5819 5822 5825 5828 5831 5833 5836 5838 5841 5844 5846 5850 5854 5856 5858 5861 5863 5866 5868 5871 5873 5876 5877 5879 5881 5882 5884 5885 5885 5886 5887
5793 5793 5794 5796 5797 5799 5800 5801 5803 5805 5807 5810 5812 5814 5817 5821 5824 5826 5829 5832 5835 5838 5840 5844 5849 5851 5853 5855 5858 5860 5863 5866 5869 5871 5873 5875 5877 5878 5880 5881 5883 5883 5884
5786 5786 5787 5788 5789 5791 5793 5794 5796 5798 5800 5802 5805 5807 5810 5813 5816 5819 5821 5824 5827 5831 5834 5838 5843 5846 5847 5849 5851 5855 5858 5861 5863 5866 5868 5871 5873 5874 5876 5878 5879 5880 5882
5777 5778 5779 5780 5781 5782 5784 5786 5788 5789 5792 5794 5796 5799 5802 5805 5808 5811 5813 5816 5819 5823 5826 5831 5835 5839 5842 5844 5846 5849 5852 5854 5857 5860 5863 5866 5868 5870 5872 5873 5875 5877 5878
5768 5768 5769 5770 5771 5772 5775 5776 5778 5780 5782 5784 5787 5790 5793 5796 5799 5801 5804 5807 5810 5814 5819 5822 5826 5831 5834 5837 5840 5843 5846 5848 5851 5854 5857 5860 5862 5864 5867 5868 5871 5872 5874
5760 5759 5759 5760 5761 5762 5764 5767 5769 5771 5772 5774 5777 5779 5782 5785 5788 5792 5795 5797 5801 5804 5809 5813 5817 5822 5826 5829 5833 5836 5840 5842 5844 5847 5849 5855 5856 5858 5861 5863 5865 5867 5869
5749 5749 5749 5750 5751 5752 5754 5756 5759 5761 5763 5763 5765 5768 5771 5773 5777 5781 5784 5788 5791 5794 5799 5803 5807 5812 5817 5821 5824 5828 5832 5835 5837 5840 5843 5847 5850 5852 5855 5857 5859 5861 5863
5739 5739 5738 5739 5741 5742 5743 5745 5746 5749 5751 5753 5754 5756 5758 5761 5764 5768 5772 5776 5780 5783 5787 5792 5796 5801 5806 5810 5814 5818 5822 5826 5830 5832 5836 5838 5843 5846 5848 5850 5853 5855 5857
5729 5728 5728 5729 5730 5732 5733 5734 5735 5737 5739 5742 5744 5745 5746 5749 5752 5755 5759 5763 5767 5771 5776 5780 5784 5790 5795 5798 5802 5805 5811 5817 5821 5824 5827 5831 5834 5838 5840 5844 5846 5849 5851
5718 5717 5717 5718 5719 5720 5722 5724 5725 5727 5728 5731 5733 5735 5736 5738 5741 5743 5747 5750 5753 5757 5762 5767 5772 5776 5783 5786 5790 5793 5798 5804 5811 5814 5818 5822 5825 5829 5833 5836 5839 5842 5844
5707 5706 5706 5707 5708 5709 5711 5713 5715 5716 5717 5719 5720 5723 5724 5725 5727 5730 5733 5736 5740 5744 5747 5753 5758 5761 5766 5767 5778 5782 5786 5791 5799 5805 5808 5813 5816 5820 5825 5828 5832 5834 5837
5695 5695 5694 5695 5696 5698 5700 5701 5703 5704 5705 5706 5706 5708 5709 5711 5712 5714 5717 5719 5722 5727 5731 5737 5743 5747 5752 5754 5762 5766 5774 5780 5787 5794 5799 5803 5807 5811 5816 5820 5824 5826 5829
5684 5684 5684 5683 5684 5686 5688 5689 5691 5692 5693 5693 5693 5694 5694 5696 5697 5697 5698 5701 5704 5708 5714 5720 5725 5731 5734 5742 5746 5753 5760 5770 5777 5783 5789 5793 5799 5802 5806 5810 5814 5818 5820
5673 5673 5672 5672 5673 5674 5676 5677 5678 5679 5680 5679 5679 5679 5679 5680 5681 5682 5683 5684 5687 5690 5696 5702 5707 5714 5719 5725 5736 5737 5746 5756 5763 5769 5775 5781 5787 5792 5797 5801 5804 5808 5810
5662 5662 5661 5660 5661 5663 5664 5665 5666 5666 5666 5666 5665 5665 5664 5662 5663 5664 5666 5668 5670 5673 5677 5681 5689 5695 5705 5711 5718 5725 5733 5742 5751 5757 5761 5768 5773 5780 5785 5790 5794 5796 5799
5650 5650 5651 5650 5650 5652 5653 5654 5654 5654 5653 5653 5651 5649 5646 5644 5647 5649 5649 5649 5651 5653 5657 5661 5670 5677 5687 5694 5701 5712 5721 5728 5738 5743 5748 5754 5762 5767 5772 5776 5780 5784 5787
Wind_Speed
18 17 17 15 15 15 14 15 16 17 15 13 11 9 8 8 13 15 16 15 16 17 16 14 11 11 13 13 13 14 14 13 13 12 12 10 9 8 7 8 9 9 8
16 18 18 17 17 16 17 16 16 17 17 16 14 12 11 9 10 13 15 16 17 17 17 15 13 14 16 14 15 15 15 14 13 12 11 9 8 7 6 7 8 8 7
16 17 19 19 20 20 21 19 18 18 18 18 17 16 13 12 10 10 12 17 19 18 18 17 16 18 18 16 16 16 16 15 14 13 11 8 7 6 7 7 8 7 6
16 18 20 20 19 21 22 21 20 20 20 21 20 19 17 16 14 13 12 12 15 18 19 18 19 21 20 19 17 17 17 16 15 14 12 10 10 10 9 8 8 7 6
19 19 21 20 20 21 21 22 24 23 24 22 23 22 21 20 19 16 14 13 13 14 16 17 20 22 22 21 19 17 18 17 16 15 14 12 11 11 10 9 8 7 6
23 23 24 24 22 21 22 22 23 25 25 25 24 24 23 22 22 20 18 15 14 15 15 16 21 22 23 22 20 19 18 18 18 16 15 12 11 12 12 11 10 9 6
27 28 28 28 28 26 25 24 25 26 26 27 26 25 24 25 24 23 22 20 17 16 18 18 21 24 25 23 22 20 19 19 18 18 17 13 13 14 14 13 12 10 7
29 28 29 30 31 30 28 27 26 27 28 28 28 28 28 27 27 25 25 24 22 19 19 21 22 24 26 25 24 22 20 19 20 20 18 15 14 15 15 14 13 10 7
29 30 30 30 31 32 32 31 29 29 29 30 31 30 30 30 29 28 27 27 26 24 21 21 25 26 27 27 26 24 22 21 22 21 20 18 16 16 16 15 13 11 8
28 28 29 30 32 33 34 33 34 32 31 31 31 32 32 33 32 32 31 29 28 28 26 24 24 28 28 29 29 27 24 23 24 23 22 20 19 18 18 17 15 13 11
25 25 25 27 29 31 33 34 34 35 34 33 33 33 34 34 35 35 35 33 32 30 30 29 25 28 30 31 31 30 28 25 26 26 25 23 20 19 19 19 17 16 14
28 28 28 28 28 29 31 32 33 34 35 35 34 34 34 35 37 38 38 38 36 35 33 32 28 26 31 32 34 33 31 29 28 29 28 25 22 21 21 21 19 17 16
32 32 32 32 32 32 32 32 33 33 34 35 36 36 36 35 37 40 41 40 40 39 36 34 30 29 31 34 35 35 34 32 31 31 31 28 25 23 23 23 22 19 18
37 38 39 39 38 37 36 35 35 35 35 35 35 36 36 37 38 38 41 44 43 43 40 37 34 34 33 35 36 37 36 35 34 33 34 31 29 25 24 25 24 21 20
37 38 38 38 38 39 40 40 40 39 39 39 39 39 39 39 39 40 41 42 46 47 44 43 39 37 36 37 39 38 38 38 37 36 37 34 31 28 27 27 26 24 22
37 38 38 38 39 40 41 41 41 42 43 44 44 44 44 44 43 42 43 44 44 47 48 47 46 43 40 40 41 41 40 40 40 39 39 36 34 30 29 28 27 26 25
40 39 40 39 38 39 40 40 41 42 44 46 47 48 49 49 49 47 47 46 46 46 47 52 50 48 44 43 43 44 43 42 43 43 42 39 37 33 32 31 30 28 28
40 40 40 40 40 40 41 41 42 43 44 46 49 50 51 53 54 54 52 51 51 50 49 50 53 53 50 47 47 46 47 45 45 45 45 43 40 37 36 35 33 31 31
41 40 39 38 38 39 39 39 38 36 37 37 40 42 45 47 49 51 54 55 55 55 54 53 53 57 52 55 51 50 50 48 48 48 48 46 43 40 39 37 37 35 34
42 40 40 39 38 37 37 37 38 38 39 40 40 41 43 45 46 48 49 52 56 57 59 58 58 59 56 61 57 54 53 52 51 51 51 49 48 44 42 40 40 38 37
44 42 41 41 39 39 39 40 40 41 41 43 44 46 48 50 53 54 56 57 58 58 62 63 61 65 66 57 66 60 56 55 54 54 53 52 50 48 44 43 42 41 40
43 42 41 41 39 38 39 40 41 41 42 44 46 48 50 50 54 58 62 65 69 67 66 65 67 61 65 59 66 59 60 57 56 56 55 54 52 51 47 44 43 44 43
43 41 41 40 40 39 40 40 40 41 43 45 47 45 48 50 51 53 52 55 62 76 73 72 72 71 73 84 59 68 62 61 56 56 56 55 54 53 50 47 46 46 45
41 40 40 40 39 38 39 40 41 42 43 46 47 51 47 51 52 51 51 51 50 52 72 78 78 77 74 71 65 83 61 59 60 59 58 56 55 54 53 50 48 47 48
40 39 37 38 39 39 40 41 42 42 43 45 48 49 52 53 57 54 55 57 59 61 60 75 81 83 76 78 68 64 66 57 64 65 60 60 59 56 55 53 52 52 52
40 38 37 36 38 38 39 41 40 39 42 44 46 49 51 49 51 58 62 63 62 59 65 62 78 81 79 77 81 77 73 76 65 71 65 61 60 60 60 59 58 57 56
Wind_Direction
233 235 234 231 219 213 211 219 216 214 211 214 215 209 198 188 200 206 205 199 195 188 186 187 195 191 180 174 166 160 156 149 145 140 138 135 132 129 130 130 131 134 120
233 239 236 235 234 226 221 216 221 223 218 217 217 216 215 207 202 207 208 202 201 201 197 199 202 199 188 181 175 170 165 159 156 153 148 147 143 145 148 145 134 132 129
237 236 240 237 234 231 228 223 220 221 226 224 224 222 217 221 218 220 214 213 212 213 210 208 206 198 194 189 183 179 173 170 168 165 160 164 166 173 171 154 153 152 152
244 240 242 242 241 237 236 231 228 225 225 228 226 227 225 221 224 225 226 222 216 215 214 212 205 198 198 193 189 185 182 179 178 175 169 181 186 181 174 176 168 165 164
256 253 251 250 247 244 239 237 233 230 229 228 232 231 230 228 225 226 227 227 226 218 212 208 201 199 199 198 194 191 191 189 186 184 183 190 193 186 184 185 183 188 192
257 256 254 251 248 245 244 242 239 238 236 235 232 234 234 234 233 227 227 229 228 224 213 204 201 205 202 204 201 198 197 196 194 191 194 200 206 198 194 195 197 202 212
254 251 252 253 251 248 247 242 239 241 239 238 239 237 237 235 235 235 230 227 228 227 223 209 207 209 206 207 208 205 203 201 199 198 201 210 216 213 205 204 206 208 211
256 255 252 250 251 249 247 249 248 242 239 238 238 240 240 240 238 237 237 233 228 227 226 221 215 211 212 212 212 211 209 208 203 204 208 214 218 221 218 215 217 216 207
254 253 252 252 251 250 247 246 246 247 246 243 240 238 239 241 242 240 238 237 235 228 227 226 221 220 219 218 216 214 212 213 209 210 210 217 223 227 225 223 224 219 207
252 251 251 250 250 252 251 248 247 244 246 246 244 243 239 240 242 242 242 239 238 237 229 227 227 223 223 222 221 217 216 216 214 212 214 222 226 232 231 228 222 216 209
256 254 250 249 249 250 252 252 249 249 246 246 246 244 243 241 240 240 241 242 240 237 237 229 227 229 224 225 224 223 218 218 217 216 218 224 231 235 235 231 224 214 210
262 261 259 255 252 251 252 252 251 249 248 247 246 246 244 242 241 241 241 240 241 240 238 233 230 232 229 225 225 223 223 219 220 218 220 226 232 235 237 234 224 221 217
268 266 264 261 257 253 249 249 251 250 249 248 247 247 246 244 241 242 242 241 241 240 240 238 230 230 232 227 225 224 224 224 220 220 221 227 233 236 236 235 228 224 224
268 265 262 260 258 256 254 252 252 253 251 251 250 248 247 245 245 243 242 242 241 241 240 238 233 227 232 231 227 226 225 225 224 220 222 226 234 237 237 235 233 229 222
267 264 261 259 256 253 251 251 252 253 254 254 253 252 250 247 245 245 245 244 242 241 239 239 236 230 229 232 231 229 228 227 224 221 223 226 233 237 237 235 235 230 223
267 263 261 258 256 255 255 253 252 254 255 255 255 255 254 251 248 245 245 246 245 244 239 238 238 234 231 230 232 232 230 229 226 223 223 226 231 235 238 234 234 230 224
270 267 264 261 258 255 255 255 254 253 253 255 255 254 253 253 251 248 245 245 246 245 242 238 238 238 233 232 233 233 232 230 228 226 225 225 231 233 237 234 232 229 227
275 269 265 261 260 259 258 257 257 255 253 252 253 254 253 251 250 250 248 245 243 244 242 240 238 238 239 233 232 234 233 230 230 227 227 225 229 233 236 234 233 231 229
272 270 266 261 258 256 256 255 254 253 253 252 251 252 253 253 252 251 249 247 244 243 242 240 238 237 235 237 232 230 233 232 229 230 227 228 227 232 237 235 234 233 232
271 266 265 262 259 256 252 249 251 255 257 258 258 257 257 257 256 256 255 251 248 245 242 239 238 237 235 234 234 231 230 231 230 230 230 227 230 230 235 237 236 235 236
270 265 264 262 259 255 251 252 253 256 259 261 262 260 258 259 259 258 257 254 251 247 245 241 237 237 239 231 232 231 230 229 230 231 231 230 230 232 234 238 239 239 239
269 266 263 261 259 255 252 252 254 257 262 263 263 263 262 260 259 258 254 251 250 247 244 242 241 242 236 238 237 225 231 230 229 232 233 232 231 233 233 237 242 242 243
269 265 265 263 260 258 255 256 258 262 264 265 263 265 265 261 261 263 260 260 251 243 240 239 239 239 238 234 238 235 230 229 230 231 234 235 234 234 235 235 240 244 247
268 265 264 265 262 260 260 261 263 265 265 264 266 264 271 263 257 257 257 257 251 254 243 235 235 234 237 236 237 237 231 229 228 230 232 235 235 235 236 237 238 242 247
264 265 266 266 266 265 265 265 266 267 267 267 267 266 271 263 252 255 254 258 254 254 252 241 233 233 232 233 230 232 237 229 234 229 231 232 232 233 234 235 238 241 244
266 266 264 264 265 265 266 266 266 267 267 268 271 273 272 261 256 259 259 258 250 256 247 244 235 229 228 227 230 231 237 241 237 230 226 232 235 233 232 233 235 239 244